Tracking 30696 objects as of 15-Jun-2025
HD Live streaming from Space Station
objects crossing your sky now

STARLINK-3271

Track STARLINK-3271 now!
10-day predictions
STARLINK-3271 is classified as:


NORAD ID: 50167
Int'l Code: 2021-125M
Perigee: 546.0 km
Apogee: 547.8 km
Inclination: 53.2 °
Period: 95.4 minutes
Semi major axis: 6917 km
RCS: Unknown
Launch date: December 18, 2021
Source: United States (US)
Launch site: AIR FORCE WESTERN TEST RANGE (AFWTR)
Your satellite tracking list
Your tracking list is empty




NASA's NSSDC Master Catalog

Two Line Element Set (TLE):
1 50167U 21125M   25166.00823919 -.00001083  00000-0 -49965-4 0  9993
2 50167  53.2187  20.7976 0001355 101.3937 258.7207 15.08834121195566
Source of the keplerian elements: AFSPC